Location: ??????
(38.1303°N, 24.0039°E)
Time: 02:55:19
(UTC+00:00)

Cosmos 2150 Rocket - Pass Details

Date: 20 June 2021
Orbit: 749 x 808 km, 74.0° (Epoch: 05 August)

Event Time Altitude Azimuth Distance (km) Brightness Sun altitude
Rises 00:59:31 0° 341° (NNW) 3,219 7.7 -18.6°
Reaches altitude 10° 01:01:52 10° 341° (NNW) 2,296 6.9 -18.3°
Maximum altitude 01:07:05 87° 254° (WSW) 774 3.9 -17.7°
Enters shadow 01:12:22 10° 164° (SSE) 2,319 6.2 -17.1°
